Location: West Sayville
(40.7279°N, 73.0976°W)
Time: 07:30:08
(UTC+00:00)

CORIOLIS - Pass Details

Date: 29 October 2020
Orbit: 819 x 838 km, 98.7° (Epoch: 02 December)

Event Time Altitude Azimuth Distance (km) Brightness Sun altitude
Rises 22:30:45 0° 167° (SSE) 3,333 7.3 -8.0°
Reaches altitude 10° 22:33:04 10° 169° (S) 2,406 6.6 -8.4°
Maximum altitude 22:38:24 81° 256° (WSW) 836 4.3 -9.4°
Drops below altitude 10° 22:43:48 10° 344° (NNW) 2,429 6.7 -10.4°
Sets 22:46:10 0° 346° (NNW) 3,368 7.4 -10.9°
